Regional Weather Roundup
Issued by NWS

Home | Current Version | Previous Version | Text Only | Print | Product List | Glossary Off
Versions: 1 2 3 4 5 6 7 8 9 10 11 12 13 14 15 16 17 18 19 20 21 22 23 24 25 26 27

000
ASUS45 KCYS 270110
RWRWY

WYOMING REGIONAL WEATHER ROUNDUP
NATIONAL WEATHER SERVICE CHEYENNE WY
600 PM MST SUN FEB 26 2017

NOTE:  "FAIR" INDICATES FEW OR NO CLOUDS BELOW 12,000 FEET
WITH NO SIGNIFICANT WEATHER AND/OR OBSTRUCTIONS TO VISIBILITY.

WYZ001-270200-
YELLOWSTONE NATIONAL PARK

CITY           SKY/WX    TMP DP  RH WIND       PRES   REMARKS
LK YELLOWSTONE   N/A     11   8  88 CALM      29.61F
W YELLOWSTONE  NOT AVBL

$$
WYZ002>013-054>058-071-098>099-270200-
NORTHERN WYOMING

CITY           SKY/WX    TMP DP  RH WIND       PRES   REMARKS
JACKSON        CLOUDY    18  10  73 SW14      29.67F WCI   4
CODY           FAIR      27   8  44 S9        29.64R WCI  18
GREYBULL       FAIR      30   8  39 E6        29.69S WCI  24
WORLAND        FAIR      26  13  57 S8        29.69S WCI  18
SHERIDAN       CLOUDY    28  15  58 SE12      29.68S WCI  18
BUFFALO        FAIR      22   3  44 SW6       29.68S WCI  14
GILLETTE       FAIR      26  12  55 S10       29.70S WCI  16
HULETT         CLOUDY    30  14  51 S8        29.72S WCI  23
NEWCASTLE      FAIR      19  10  68 SE9       29.76F WCI   9

$$
WYZ014>020-022>026-101>103-270200-
CENTRAL WYOMING

CITY           SKY/WX    TMP DP  RH WIND       PRES   REMARKS
BIG PINEY      FAIR       6   1  80 E7        29.72F WCI  -6
PINEDALE       FAIR      10   1  67 MISG      29.72F
DUBOIS         FAIR      18   1  49 NW12G20   29.61S WCI   5
LANDER         FAIR      17   4  56 SW8       29.65S WCI   7
RIVERTON       FAIR      21   3  45 SW3       29.66F
CASPER         FAIR      21   7  54 SW23G35   29.70S WCI   5
DOUGLAS        FAIR      24   5  44 W13G21    29.73F WCI  12

$$
WYZ021-027>030-104>119-270200-
SOUTHERN WYOMING

CITY           SKY/WX    TMP DP  RH WIND       PRES   REMARKS
EVANSTON       MOCLDY    21   6  52 SW10      29.69F WCI  10
FORT BRIDGER   FAIR      17   8  67 SE7       29.74F WCI   8
ROCK SPRINGS   FAIR      18   2  49 S5        29.75S WCI  11
DIXON            N/A     23   6  48 CALM      29.81R
RAWLINS        FAIR      18   4  54 SW13      29.75  WCI   5
SARATOGA       FAIR      18   3  53 SW9       29.74S WCI   6
LARAMIE        FAIR      20   4  50 SW18      29.70S WCI   5
CHEYENNE       FAIR      26   7  44 CALM      29.75R
TORRINGTON     FAIR      25   7  46 CALM      29.79S
PINE BLUFFS    FAIR      27  12  54 N6G22     29.79R WCI  20

$$




USA.gov is the U.S. government's official web portal to all federal, state and local government web resources and services.